Time,TemperatureF,DewpointF,PressureIn,WindDirection,WindDirectionDegrees,WindSpeedMPH,WindSpeedGustMPH,Humidity,HourlyPrecipIn,Conditions,Clouds,dailyrainin,SoftwareType,DateUTC
2013-09-19 00:03:00,54.2,49.0,30.26,WSW,242,0.0,5.0,82,0.01,,,0.00,weatherlink.com 1.10,2013-09-19 06:03:00,
2013-09-19 00:18:00,53.5,50.0,30.26,WSW,242,1.0,3.0,87,0.01,,,0.00,weatherlink.com 1.10,2013-09-19 06:18:00,
2013-09-19 00:33:00,53.2,49.0,30.27,WSW,240,0.0,9.0,85,0.01,,,0.00,weatherlink.com 1.10,2013-09-19 06:33:00,
2013-09-19 00:48:00,53.5,49.0,30.29,SW,233,3.0,11.0,85,0.00,,,0.00,weatherlink.com 1.10,2013-09-19 06:48:00,
2013-09-19 01:03:00,53.8,48.0,30.29,SW,234,0.0,5.0,81,0.00,,,0.00,weatherlink.com 1.10,2013-09-19 07:03:00,
2013-09-19 01:18:00,53.2,49.0,30.29,SW,235,0.0,5.0,84,0.00,,,0.00,weatherlink.com 1.10,2013-09-19 07:18:00,
2013-09-19 01:33:00,52.3,49.0,30.30,SW,230,3.0,9.0,89,0.02,,,0.02,weatherlink.com 1.10,2013-09-19 07:33:00,
2013-09-19 01:48:00,51.7,49.0,30.30,South,190,3.0,10.0,91,0.09,,,0.09,weatherlink.com 1.10,2013-09-19 07:48:00,
2013-09-19 02:03:00,51.9,50.0,30.30,South,178,2.0,8.0,92,0.11,,,0.11,weatherlink.com 1.10,2013-09-19 08:03:00,
2013-09-19 02:18:00,52.2,50.0,30.29,South,176,2.0,8.0,92,0.14,,,0.14,weatherlink.com 1.10,2013-09-19 08:18:00,
2013-09-19 02:33:00,52.6,50.0,30.29,South,176,0.0,3.0,92,0.11,,,0.14,weatherlink.com 1.10,2013-09-19 08:33:00,
2013-09-19 02:48:00,52.7,51.0,30.29,South,177,0.0,1.0,92,0.05,,,0.14,weatherlink.com 1.10,2013-09-19 08:48:00,
2013-09-19 03:04:00,52.6,50.0,30.27,South,176,0.0,1.0,92,0.03,,,0.14,weatherlink.com 1.10,2013-09-19 09:04:00,
2013-09-19 03:19:00,52.6,50.0,30.28,South,177,0.0,1.0,92,0.00,,,0.14,weatherlink.com 1.10,2013-09-19 09:19:00,
2013-09-19 03:34:00,52.3,50.0,30.28,South,177,0.0,2.0,92,0.00,,,0.14,weatherlink.com 1.10,2013-09-19 09:34:00,
2013-09-19 03:49:00,52.2,50.0,30.28,South,177,0.0,2.0,92,0.00,,,0.14,weatherlink.com 1.10,2013-09-19 09:49:00,
2013-09-19 04:04:00,51.7,50.0,30.29,South,176,0.0,3.0,93,0.00,,,0.14,weatherlink.com 1.10,2013-09-19 10:04:00,
2013-09-19 04:19:00,51.3,49.0,30.30,South,176,0.0,2.0,93,0.00,,,0.14,weatherlink.com 1.10,2013-09-19 10:19:00,
2013-09-19 04:34:00,51.1,50.0,30.29,South,176,0.0,0.0,94,0.00,,,0.14,weatherlink.com 1.10,2013-09-19 10:34:00,
2013-09-19 04:49:00,50.8,49.0,30.29,South,176,0.0,3.0,94,0.00,,,0.14,weatherlink.com 1.10,2013-09-19 10:49:00,
2013-09-19 05:04:00,50.3,49.0,30.30,South,176,0.0,0.0,94,0.00,,,0.14,weatherlink.com 1.10,2013-09-19 11:04:00,
2013-09-19 05:19:00,50.0,48.0,30.30,South,176,0.0,3.0,94,0.00,,,0.14,weatherlink.com 1.10,2013-09-19 11:19:00,
2013-09-19 05:34:00,50.1,49.0,30.29,South,177,0.0,3.0,94,0.00,,,0.14,weatherlink.com 1.10,2013-09-19 11:34:00,
2013-09-19 05:49:00,49.7,48.0,30.29,South,177,0.0,1.0,93,0.00,,,0.14,weatherlink.com 1.10,2013-09-19 11:49:00,
2013-09-19 06:04:00,49.0,47.0,30.30,South,176,0.0,0.0,93,0.00,,,0.14,weatherlink.com 1.10,2013-09-19 12:04:00,
2013-09-19 06:19:00,48.5,47.0,30.30,South,177,0.0,0.0,94,0.00,,,0.14,weatherlink.com 1.10,2013-09-19 12:19:00,
2013-09-19 06:34:00,48.6,47.0,30.30,South,177,0.0,3.0,94,0.00,,,0.14,weatherlink.com 1.10,2013-09-19 12:34:00,
2013-09-19 06:49:00,48.6,47.0,30.31,South,177,0.0,2.0,94,0.00,,,0.14,weatherlink.com 1.10,2013-09-19 12:49:00,
2013-09-19 07:04:00,48.2,46.0,30.32,South,177,0.0,0.0,93,0.00,,,0.14,weatherlink.com 1.10,2013-09-19 13:04:00,
2013-09-19 07:19:00,48.1,47.0,30.32,South,177,1.0,2.0,94,0.00,,,0.14,weatherlink.com 1.10,2013-09-19 13:19:00,
2013-09-19 07:34:00,48.3,47.0,30.33,South,176,0.0,2.0,94,0.01,,,0.15,weatherlink.com 1.10,2013-09-19 13:34:00,
2013-09-19 07:49:00,48.3,47.0,30.34,South,177,0.0,0.0,94,0.01,,,0.15,weatherlink.com 1.10,2013-09-19 13:49:00,
2013-09-19 08:04:00,48.6,47.0,30.35,South,177,0.0,0.0,95,0.01,,,0.15,weatherlink.com 1.10,2013-09-19 14:04:00,
2013-09-19 08:19:00,49.9,49.0,30.35,South,177,0.0,1.0,95,0.00,,,0.15,weatherlink.com 1.10,2013-09-19 14:19:00,
2013-09-19 08:34:00,50.5,49.0,30.36,South,176,0.0,0.0,95,0.00,,,0.15,weatherlink.com 1.10,2013-09-19 14:34:00,
2013-09-19 08:49:00,53.0,52.0,30.36,South,178,0.0,0.0,96,0.00,,,0.15,weatherlink.com 1.10,2013-09-19 14:49:00,
2013-09-19 19:33:00,61.3,43.0,30.28,West,265,0.0,4.0,52,0.00,,,0.15,weatherlink.com 1.10,2013-09-20 01:33:00,
2013-09-19 19:51:00,60.2,43.0,30.28,West,265,2.0,3.0,54,0.00,,,0.15,weatherlink.com 1.10,2013-09-20 01:51:00,
2013-09-19 20:06:00,60.2,43.0,30.29,West,264,1.0,4.0,53,0.00,,,0.15,weatherlink.com 1.10,2013-09-20 02:06:00,
2013-09-19 20:20:00,60.0,43.0,30.29,West,263,0.0,1.0,53,0.00,,,0.15,weatherlink.com 1.10,2013-09-20 02:20:00,
2013-09-19 20:35:00,59.0,43.0,30.30,West,263,0.0,1.0,56,0.00,,,0.15,weatherlink.com 1.10,2013-09-20 02:35:00,
2013-09-19 20:50:00,57.2,42.0,30.30,West,263,1.0,2.0,58,0.00,,,0.15,weatherlink.com 1.10,2013-09-20 02:50:00,
2013-09-19 21:05:00,57.6,42.0,30.32,SW,226,4.0,8.0,56,0.00,,,0.15,weatherlink.com 1.10,2013-09-20 03:05:00,
2013-09-19 21:20:00,59.0,41.0,30.32,SSW,195,3.0,7.0,52,0.00,,,0.15,weatherlink.com 1.10,2013-09-20 03:20:00,
2013-09-19 21:35:00,59.8,42.0,30.32,ESE,115,6.0,11.0,53,0.00,,,0.15,weatherlink.com 1.10,2013-09-20 03:35:00,
2013-09-19 21:50:00,61.6,45.0,30.32,ESE,109,2.0,13.0,54,0.00,,,0.15,weatherlink.com 1.10,2013-09-20 03:50:00,
2013-09-19 22:05:00,59.9,42.0,30.32,ESE,118,2.0,3.0,52,0.00,,,0.15,weatherlink.com 1.10,2013-09-20 04:05:00,
2013-09-19 22:20:00,58.6,43.0,30.32,ESE,119,0.0,1.0,57,0.00,,,0.15,weatherlink.com 1.10,2013-09-20 04:20:00,
2013-09-19 22:35:00,57.8,43.0,30.34,ESE,119,0.0,1.0,59,0.00,,,0.15,weatherlink.com 1.10,2013-09-20 04:35:00,
2013-09-19 22:50:00,57.2,44.0,30.33,ESE,119,0.0,2.0,61,0.00,,,0.15,weatherlink.com 1.10,2013-09-20 04:50:00,
2013-09-19 23:05:00,56.1,44.0,30.34,ESE,119,0.0,0.0,65,0.00,,,0.15,weatherlink.com 1.10,2013-09-20 05:05:00,
2013-09-19 23:20:00,55.5,45.0,30.33,ESE,117,1.0,4.0,67,0.00,,,0.15,weatherlink.com 1.10,2013-09-20 05:20:00,
2013-09-19 23:35:00,55.4,45.0,30.32,ESE,117,0.0,3.0,67,0.00,,,0.15,weatherlink.com 1.10,2013-09-20 05:35:00,
2013-09-19 23:50:00,54.6,44.0,30.33,ESE,117,2.0,2.0,68,0.00,,,0.15,weatherlink.com 1.10,2013-09-20 05:50:00,